星链-6254 (STARLINK-6254 )

导读

STARLINK-6254是美国SpaceX公司星链星座中Starlink v2.0 Mini版本的卫星,于2023年6月22日发射入轨,目前仍在正常服役。该卫星运行在近地轨道,轨道倾角43.004°,近地点约482千米、远地点约484千米,周期约94.3分钟。作为星链巨型低轨互联网星座的组成部分,它旨在为全球偏远地区提供高速低延迟宽带互联网服务,助力SpaceX全球卫星互联网组网。

Basic Information
目录编号:
57090
目录名称:
STARLINK-6254
国际标识:
2023-088AU
轨道中心:
EARTH
卫星名称:
星链-6254
卫星全名:
星链-6254 (STARLINK-6254 )
卫星状态:
在轨 (已飞行1170 天)
发射日期:
2023-06-22 UTC
国别 :
美国 (US)
星等 :
--
Orbit Information
数据来源 国际轨道数据
星历时间: 2026-09-04T11:04:34+0800
10小时前
查看轨道信息
半长轴: 6861.199km
偏心率: 0.0001435
轨道倾角: 43.002°
近地点辐角 264.645°
升交点赤经 168.099°
平近点角 95.424°
近地点: 482.077km
远地点: 484.047km
周期: 94.267分钟
每日圈数: 15.275757
Detailed Information
固有亮度:
5
最大亮度:
2.4
卫星平台:
Starlink v1.5
覆盖范围:
全球
运营商:
太空探索技术公司
运营商所在国:
美国
制造商(研发单位):
太空探索技术公司
制造商所在国:
美国
使用方式:
暂无
Satellite Introduction
星链(Starlink)计划是由太空探索技术公司(SpaceX)提出的一个巨型低轨卫星互联网星座项目,计划在2019年至2024年间在太空搭建由约1.2万颗卫星组成的“星链”网络,其中1584颗将部署在地球上空550千米处的近地轨道,并从2020年开始工作。该卫星仍在工作。
2D Orbit Map
3D Orbit Map
Orbit Altitude Analysis Chart
Orbit Inclination Analysis Chart
Orbit Comprehensive Analysis Chart
View Comprehensive Chart
Conjunction Data List
Event ID Objects TCA Miss Dist (km) Collision Risk Probability Collision Risk Index (CRI) Action
CDM_260904-171905-709006-357721
2026-09-04T
17:19:52+0000
0.867 km
远距离
3.243998E-5 中风险 0.65
CDM_260904-185405-709006-357721
2026-09-04T
18:54:01+0000
1.857 km
极远距离
2.638768E-6 低风险 0.43
CDM_260902-235604-649505-709022
SALSAT (46495)
2026-09-02T
23:56:54+0000
2.389 km
极远距离
1.569323E-6 低风险 0.39
CDM_260904-053804-102605-709023
2026-09-04T
05:38:49+0000
2.645 km
极远距离
1.530777E-6 低风险 0.39
CDM_260904-154505-709006-357721
2026-09-04T
15:45:42+0000
2.666 km
极远距离
1.22359E-6 低风险 0.37